[[{"header":{"parameterUnit":"m.s-1","parameterCategory":1,"la1":30.2991,"la2":30.254,"lo1":-89.0895,"lo2":-89.0444,"dy":0.0017,"dx":0.0017,"nx":28,"ny":28,"refTime":"2025-07-27T21:00:00:Z","depth":0,"parameterNumber":2,"parameterNumberName":"U-component_of_WINDS"},"data":[0,0,0,0,0,0,0,0,0,0,0,0,0,0,0,0,0,0,0,0,0,0,0,0,0,0,0,0,0,0,0,0,0,0,0,0,0,0,0,0,0,0,0,0,0,0,0,0,0,0,0,0,0,0,0,0,0,0,3.0195,3.0196,0,3.028,3.0281,3.0282,3.0176,3.0172,3.0168,3.0165,3.0255,3.0261,3.0267,0,0,0,0,0,0,0,0,0,0,0,0,0,2.9946,2.9951,3.0195,3.0196,3.0197,3.028,3.0281,3.0282,3.0177,3.0172,3.0167,3.0163,3.0253,3.026,3.0267,0,0,0,0,0,0,0,0,0,0,0,0,0,3.0045,2.9952,3.0195,3.0154,3.0152,3.028,3.0281,3.0282,3.0178,3.0172,3.0166,3.0161,3.025,3.0259,3.0268,3.0441,0,0,3.0296,3.03,0,0,0,0,0,0,0,0,3.0039,3.0054,3.0159,3.0157,3.0154,3.0211,3.0226,3.0336,3.0179,3.0168,3.0165,3.0158,3.0245,3.0254,3.0283,3.0445,3.0449,3.0297,3.0302,3.0306,3.0308,0,0,0,0,0,0,0,3.0032,3.005,3.0228,3.0161,3.0158,3.0133,3.0141,3.0246,3.0238,3.0169,3.0161,3.0172,3.0243,3.0275,3.0285,3.045,3.0296,3.0304,3.031,3.0313,3.0761,3.0767,0,0,0,0,0,0,3.003,3.0045,3.0226,3.0231,3.0081,3.0143,3.0151,3.0199,3.0237,3.0237,3.0177,3.0167,3.0262,3.0274,3.0287,3.0494,3.0306,3.0314,3.032,3.0755,3.0763,3.0769,0,0,0,0,0,0,3.0025,3.0047,3.0222,3.0136,3.0156,3.0153,3.0208,3.0204,3.0235,3.0244,3.0242,3.0211,3.0258,3.0275,3.0404,3.0496,3.0318,3.0327,3.0747,3.0757,3.0766,3.0908,0,0,0,0,0,0,3.0018,3.0046,3.011,3.0138,3.0161,3.0337,3.0213,3.021,3.0251,3.0239,3.0275,3.0275,3.0255,3.0391,3.0413,3.0505,3.0334,3.0739,3.0752,3.0763,3.0895,3.0922,3.0944,0,0,0,0,0,3.001,3.0147,3.0114,3.0136,3.0242,3.0342,3.0355,3.0328,3.0259,3.0325,3.033,3.0274,3.0482,3.0405,3.0429,3.0525,3.0733,3.0748,3.0762,3.0884,3.0916,3.0943,0,0,0,0,0,0,3.013,3.015,3.0113,3.0263,3.0302,3.0324,3.0406,3.0363,3.0422,3.0408,3.0373,3.0382,3.052,3.0535,3.0449,3.0696,3.0596,3.0616,3.0681,3.0712,3.0736,3.073,3.0341,0,0,0,0,0,3.0174,3.0253,3.0266,3.0397,3.0418,3.0409,3.0452,3.0428,3.0466,3.0482,3.0497,3.0538,3.0613,3.0663,3.0731,3.0897,3.0905,3.0975,3.0999,3.1019,3.1037,3.1129,3.1161,3.0817,3.0817,3.0817,0,0,3.0266,3.0286,3.0338,3.0422,3.0449,3.0533,3.0424,3.0516,3.0579,3.0497,3.062,3.0633,3.0676,3.0825,3.0891,3.0842,3.1134,3.1038,3.1053,3.1061,3.1147,3.118,3.1209,3.0827,3.0825,3.0824,0,0,3.0476,3.0499,3.0612,3.0641,3.0683,3.0677,3.0704,3.0734,3.0739,3.0862,3.0803,3.0877,3.1006,3.104,3.1075,3.1301,3.1253,3.1324,3.1452,3.1542,3.1569,3.1593,3.1676,3.1706,3.1342,3.1343,3.1343,0,3.0585,3.0709,3.0675,3.0774,3.0814,3.0742,3.0858,3.0889,3.0952,3.0982,3.0925,3.1087,3.1111,3.1268,3.1324,3.1353,3.1385,3.1321,3.1568,3.1591,3.1613,3.1692,3.1724,3.1351,3.135,3.1349,3.1349,0,3.0842,3.0929,3.1015,3.1078,3.1128,3.1234,3.1219,3.1273,3.1246,3.1246,3.1374,3.14,3.1475,3.151,3.1483,3.1665,3.1633,3.1573,3.1472,3.1655,3.1729,3.1759,3.1364,3.136,3.1358,3.1356,0,0,3.1131,3.1175,3.1208,3.1237,3.1279,3.1346,3.1451,3.1523,3.1572,3.1618,3.1706,3.1818,3.1763,3.1802,3.1779,3.1858,3.2039,3.1788,3.1788,3.1836,3.2244,3.2291,3.2326,3.2007,3.2012,3.2017,3.2241,0,3.1344,3.1524,3.1498,3.1672,3.1754,3.1688,3.1779,3.1817,3.182,3.1891,3.1894,3.1975,3.1895,3.1919,3.1993,3.2001,3.2121,3.1984,3.2091,3.2095,3.2084,3.2364,3.2413,3.2624,3.2269,3.2274,3.2278,0,3.1616,3.1673,3.1855,3.1887,3.1921,3.2003,3.2069,3.2136,3.2178,3.2175,3.222,3.2184,3.229,3.2187,3.2335,3.2243,3.2285,3.2296,3.2303,3.2314,3.2199,3.2385,3.269,3.2722,3.2322,3.2319,3.2316,0,3.1812,3.1934,3.2059,3.2086,3.2126,3.2186,3.2205,3.2241,3.2287,3.2345,3.2375,3.2444,3.2483,3.2539,3.2523,3.2449,3.2676,3.2571,3.2679,3.268,3.2731,3.2728,3.305,3.2755,3.2754,3.2754,3.2753,0,3.2054,3.2169,3.2148,3.2226,3.2353,3.2323,3.2451,3.2462,3.2495,3.2575,3.2523,3.2599,3.2573,3.2648,3.2637,3.2763,3.278,3.2782,3.2778,3.2789,3.2789,3.2817,3.2803,3.2762,3.276,3.2759,3.2757,0,3.2295,3.2285,3.2418,3.2445,3.2455,3.2548,3.2572,3.2646,3.2645,3.2748,3.277,3.277,3.2857,3.2846,3.2943,3.2935,3.3093,3.307,3.3079,3.3074,3.3184,3.3175,3.3536,3.3584,3.3257,3.326,3.3262,0,3.245,3.2537,3.2574,3.2624,3.2648,3.2728,3.2775,3.275,3.2801,3.2857,3.2925,3.3006,3.3071,3.3213,3.3222,3.3297,3.3277,3.3398,3.3288,3.3296,3.3282,3.3278,3.3287,3.3421,3.3425,3.3427,3.343,0,3.2729,3.2721,3.279,3.2859,3.2916,3.2969,3.3017,3.3061,3.304,3.3101,3.3189,3.3239,3.3338,3.3421,3.3492,3.3513,3.3471,3.3465,3.3494,3.3506,3.3509,3.3512,3.3141,3.3457,3.3454,3.3452,3.3451,3.345,3.2934,3.3009,3.3048,3.3127,3.3161,3.3207,3.3279,3.3287,3.336,3.3439,3.3419,3.352,3.3561,3.3652,3.3681,3.376,3.3716,3.3758,3.3769,3.378,3.3794,3.3495,3.3772,3.3772,3.3771,3.377,3.377,0,3.3212,3.3234,3.3307,3.3376,3.344,3.3392,3.3443,3.35,3.3588,3.363,3.3695,3.3798,3.3878,3.3895,3.3972,3.4033,3.4015,3.4054,3.4051,3.4057,3.3828,3.3796,3.4068,3.4067,3.4067,3.4067,3.4067,3.4067,3.3364,3.349,3.3487,3.3629,3.365,3.3748,3.3781,3.3825,3.3859,3.3975,3.4042,3.4052,3.4085,3.4165,3.4237,3.424,3.4272,3.432,3.4316,3.4102,3.4073,3.4044,3.4014,3.4327,3.4327,3.4538,3.454,3.4542]},{"header":{"parameterUnit":"m.s-1","parameterCategory":1,"la1":30.2991,"la2":30.254,"lo1":-89.0895,"lo2":-89.0444,"dy":0.0017,"dx":0.0017,"nx":28,"ny":28,"refTime":"2025-07-27T21:00:00:Z","depth":0,"parameterNumber":3,"parameterNumberName":"V-component_of_WINDS"},"data":[0,0,0,0,0,0,0,0,0,0,0,0,0,0,0,0,0,0,0,0,0,0,0,0,0,0,0,0,0,0,0,0,0,0,0,0,0,0,0,0,0,0,0,0,0,0,0,0,0,0,0,0,0,0,0,0,0,0,0.2386,0.2387,0,0.2482,0.2483,0.2484,0.2462,0.246,0.2458,0.2457,0.256,0.2564,0.2569,0,0,0,0,0,0,0,0,0,0,0,0,0,0.219,0.2194,0.2386,0.2387,0.2388,0.2481,0.2483,0.2484,0.2462,0.246,0.2458,0.2456,0.2559,0.2564,0.2569,0,0,0,0,0,0,0,0,0,0,0,0,0,0.228,0.2195,0.2386,0.2389,0.239,0.2481,0.2483,0.2484,0.2463,0.246,0.2457,0.2455,0.2557,0.2563,0.257,0.2666,0,0,0.259,0.2593,0,0,0,0,0,0,0,0,0.2275,0.2287,0.2387,0.2389,0.239,0.2457,0.2452,0.2546,0.2464,0.2435,0.2457,0.2453,0.2528,0.2537,0.2561,0.2671,0.2676,0.2591,0.2595,0.2598,0.26,0,0,0,0,0,0,0,0.2269,0.2283,0.2424,0.2389,0.2391,0.2387,0.2397,0.2469,0.2496,0.2438,0.2436,0.2447,0.2529,0.2555,0.2564,0.2677,0.2591,0.2597,0.2601,0.2604,0.2872,0.2874,0,0,0,0,0,0,0.226,0.2278,0.2421,0.2427,0.2324,0.2393,0.2403,0.2438,0.2495,0.2501,0.245,0.2446,0.2545,0.2556,0.2567,0.2685,0.2598,0.2604,0.2608,0.2868,0.2872,0.2876,0,0,0,0,0,0,0.2256,0.2273,0.2417,0.2352,0.237,0.2399,0.2438,0.2442,0.2468,0.2504,0.251,0.2471,0.2543,0.2558,0.2642,0.2688,0.2607,0.2613,0.2865,0.287,0.2874,0.2919,0,0,0,0,0,0,0.2251,0.2272,0.2307,0.2353,0.2373,0.2489,0.2441,0.2446,0.2479,0.2475,0.2526,0.2532,0.2542,0.2632,0.2648,0.2696,0.2619,0.2861,0.2867,0.2872,0.2914,0.2925,0.2934,0,0,0,0,0,0.2244,0.2318,0.2309,0.2327,0.2418,0.2491,0.2503,0.2512,0.2483,0.252,0.2543,0.253,0.268,0.264,0.2659,0.2709,0.2858,0.2865,0.2872,0.2909,0.2923,0.2934,0,0,0,0,0,0,0.2279,0.2324,0.2315,0.2405,0.2444,0.2487,0.2534,0.2526,0.2575,0.257,0.258,0.2592,0.2678,0.2701,0.2657,0.2805,0.2765,0.2776,0.2787,0.28,0.281,0.2803,0.2624,0,0,0,0,0,0.2297,0.235,0.2387,0.2463,0.2483,0.2505,0.2537,0.254,0.2582,0.2599,0.2629,0.2671,0.2728,0.2765,0.2819,0.2917,0.2928,0.296,0.297,0.2979,0.2989,0.3043,0.3058,0.2899,0.2898,0.2898,0,0,0.2335,0.2366,0.24,0.2471,0.2502,0.2559,0.252,0.2581,0.2625,0.2609,0.269,0.2713,0.2761,0.2853,0.2894,0.2875,0.3035,0.2988,0.2994,0.3,0.3052,0.3067,0.3081,0.2903,0.2902,0.2902,0,0,0.2434,0.2462,0.2529,0.256,0.2606,0.2621,0.2637,0.2681,0.2695,0.2776,0.2766,0.2818,0.2914,0.2949,0.298,0.3092,0.3083,0.3109,0.3164,0.3217,0.323,0.3241,0.3282,0.3297,0.3119,0.3119,0.3119,0,0.2477,0.256,0.2565,0.2628,0.2661,0.2647,0.2716,0.2747,0.2809,0.2833,0.2809,0.2931,0.2962,0.3062,0.3089,0.3114,0.3134,0.3104,0.3227,0.3238,0.3249,0.3289,0.3304,0.3122,0.3122,0.3121,0.3121,0,0.2611,0.2669,0.2718,0.2777,0.2815,0.288,0.2897,0.2935,0.2935,0.2952,0.3035,0.3072,0.3133,0.3157,0.3158,0.3257,0.3244,0.3224,0.3184,0.3267,0.3305,0.332,0.3126,0.3125,0.3124,0.3123,0,0,0.2736,0.2796,0.2814,0.2841,0.289,0.2937,0.3002,0.306,0.3094,0.3137,0.3194,0.3275,0.3257,0.3292,0.3296,0.3343,0.3431,0.3317,0.3318,0.3338,0.3544,0.356,0.3578,0.3424,0.3427,0.3429,0.3541,0,0.2841,0.2955,0.2961,0.3065,0.312,0.3108,0.3165,0.3203,0.3221,0.3271,0.3291,0.335,0.332,0.3341,0.3386,0.341,0.3473,0.3402,0.3479,0.3482,0.3469,0.3597,0.3614,0.3718,0.3555,0.3558,0.356,0,0.2979,0.3024,0.3133,0.3176,0.3199,0.325,0.3305,0.3352,0.3395,0.3405,0.3443,0.3441,0.3511,0.3466,0.3563,0.3515,0.3547,0.3563,0.3567,0.3577,0.3527,0.3611,0.3751,0.3767,0.3583,0.3581,0.3579,0,0.3061,0.315,0.3227,0.325,0.3301,0.3337,0.336,0.34,0.3435,0.3483,0.3506,0.3562,0.3593,0.3638,0.3651,0.3618,0.3748,0.3705,0.376,0.376,0.379,0.3788,0.3938,0.3807,0.3807,0.3807,0.3806,0,0.3178,0.3246,0.3264,0.3312,0.3388,0.3395,0.347,0.3492,0.3527,0.358,0.3573,0.3623,0.3638,0.3691,0.3702,0.3781,0.3795,0.3807,0.3809,0.3808,0.3807,0.383,0.3824,0.3811,0.381,0.3809,0.3808,0,0.3283,0.3298,0.3381,0.3422,0.3434,0.3488,0.3524,0.3571,0.3587,0.3654,0.367,0.3697,0.3759,0.3776,0.3852,0.3859,0.3953,0.3948,0.3938,0.3938,0.3993,0.3988,0.4165,0.419,0.4041,0.4042,0.4044,0,0.3358,0.3409,0.3455,0.3489,0.3513,0.3568,0.3603,0.3612,0.365,0.3703,0.3744,0.3804,0.3854,0.3954,0.3981,0.4039,0.4037,0.4094,0.4045,0.4043,0.4039,0.4037,0.4043,0.4104,0.4106,0.4107,0.4108,0,0.3489,0.3494,0.3543,0.3596,0.3638,0.368,0.3721,0.375,0.3765,0.3808,0.387,0.3908,0.3984,0.4046,0.4104,0.413,0.4123,0.4123,0.4139,0.414,0.4132,0.4139,0.3965,0.412,0.4118,0.4118,0.4117,0.4117,0.3582,0.3628,0.3667,0.3723,0.3754,0.3793,0.3839,0.386,0.3912,0.3973,0.3976,0.4044,0.4087,0.4164,0.4193,0.4248,0.4231,0.4254,0.4261,0.4267,0.4272,0.4122,0.4259,0.4258,0.4258,0.4258,0.4258,0,0.3714,0.3739,0.379,0.3847,0.3891,0.3878,0.3922,0.3961,0.4021,0.406,0.4109,0.4182,0.4241,0.4272,0.4331,0.437,0.4368,0.4385,0.4383,0.439,0.4283,0.4264,0.4386,0.4386,0.4386,0.4386,0.4386,0.4386,0.3788,0.3865,0.3874,0.3967,0.3992,0.4057,0.4084,0.412,0.4152,0.4233,0.4281,0.43,0.4337,0.4399,0.4454,0.4461,0.4485,0.4504,0.451,0.441,0.4397,0.4385,0.4367,0.4509,0.4509,0.4613,0.4614,0.4615]}]]